Showing default

CENTISPACE-1 S12, 62581

Orbit data source: Space-Track

CENTISPACE-1 S12, 62581 is a payload satellite owned by Centispace (CN) in LEO that was launched on Mon, 13 Jan 2025 UTC via a JIELONG-3 launch vehicle from the Yellow Sea Launch Area, China (YSLA). Payload-class satellites include a variety of spacecraft equipped with specific instruments for various scientific and technological missions. These include communications satellites like Starlink; space stations such as the ISS; scientific satellites like the Hubble; Earth observation satellites from companies like Planet Labs, Umbra, and HawkEye 360; GPS; miniature CubeSats for education and research; and military/defense satellites.

Loading next visibility...
Identifier
62581, 2025-007G
Orbit
LEO
Country
Flag of CNCN / PRC
Related business
Manufacturer
DFH Shenzhen
Mission
Operational Commercial Nav/Com
Bus & Motor
WK01, Unknown motor
Mass
140 kg wet, 140 kg dry
Launch date (UTC)
2025-01-13 (8 months ago)
Launch vehicle
JIELONG-3
Launch site
Yellow Sea Launch Area, China (YSLA)
Object type
Payload
Rocket body
Debris
Shape & HBR
Box + 2 Pan, 1.0 m
Radar Cross Section
0.833 m², Medium (>0.1 m² and < 1m²)

Expand to show TLE details & history
Last TLE update: 5 days ago

TLE from 5 days ago
0 CENTISPACE-1 S12
1 62581U 25007G   25253.16978035  .00000282  00000-0  11972-3 0  9997
2 62581  54.9766 234.7416 0061091 344.9624  14.9545 14.48124038 35334
Epoch: 2025-09-10T04:04Z
TLE epoch observation values (Epoch: 2025-09-10T04:04:29.022Z)
Latitude
-0.00001°
Longitude
-175.82938°
Altitude
690.89 km
Speed
7.534 km/s
True Right ascension
15h 38m 57s
True Declination
0° 00' 00"
Sunlit
Object was in daylight at epoch
Visualization orbit readout
Latitude
Unknown
Longitude
Unknown
Altitude
Unknown
Speed
Unknown
Apparent Right ascension
Unknown
Apparent Declination
Unknown
Sunlit
N/A
Visualization observer readout
Local Sidereal Time
03:07:43
Azimuth
Unknown
Elevation
Unknown
Doppler factor
Unknown
Orbital elements
Apogee altitude
775.185 km
Perigee altitude
688.315 km
Semi-major axis
7,109.887 km
Eccentricity
0.00611
Inclination
54.9766°
RAAN
234.7416°
Arg. of periapsis
344.9624°
True anomaly
15.13649°
Mean anomaly
14.9545°
Eccentric anomaly
15.04536°
Mean motion
3.62034 °/min
Orbital period
99.44 mins
BSTAR
0.00011972
Loading maneuver chart data...
Computing Atmospheric mass density...
Loading historical data...
Loading historical data...
Loading historical data...
Loading historical data...
Loading historical data...
Loading historical data...
Loading historical data...

Documentation

Showing up to 5 results
|